TimeAKDT,TemperatureF,Dew PointF,Humidity,Sea Level PressureIn,VisibilityMPH,Wind Direction,Wind SpeedMPH,Gust SpeedMPH,PrecipitationIn,Events,Conditions,WindDirDegrees,DateUTC
12:55 AM,35.8,17.1,47,30.44,10.0,Variable,4.6,-,N/A,,Clear,0,2013-05-21 08:55:00
1:55 AM,31.6,17.2,55,30.45,10.0,Variable,5.8,-,N/A,,Clear,0,2013-05-21 09:55:00
2:55 AM,28.9,16.5,60,30.46,10.0,Variable,5.8,-,N/A,,Clear,0,2013-05-21 10:55:00
3:55 AM,27.3,17.8,67,30.46,10.0,SSE,4.6,-,N/A,,Clear,150,2013-05-21 11:55:00
4:55 AM,28.6,18.7,66,30.46,10.0,Calm,Calm,-,N/A,,Clear,0,2013-05-21 12:55:00
5:55 AM,31.1,17.6,57,30.46,10.0,Calm,Calm,-,N/A,,Clear,0,2013-05-21 13:55:00
6:55 AM,34.0,18.9,54,30.45,10.0,Calm,Calm,-,N/A,,Clear,0,2013-05-21 14:55:00
7:55 AM,39.4,19.4,45,30.44,10.0,Calm,Calm,-,N/A,,Clear,0,2013-05-21 15:55:00
8:55 AM,45.9,15.6,30,30.42,10.0,Calm,Calm,-,N/A,,Clear,0,2013-05-21 16:55:00
9:55 AM,49.1,16.0,27,30.40,10.0,Calm,Calm,-,N/A,,Clear,0,2013-05-21 17:55:00
10:55 AM,52.0,13.6,22,30.38,10.0,ESE,11.5,18.4,N/A,,Clear,120,2013-05-21 18:55:00
11:55 AM,53.1,15.8,23,30.36,10.0,Variable,6.9,-,N/A,,Partly Cloudy,0,2013-05-21 19:55:00
12:55 PM,56.5,12.9,18,30.33,10.0,SE,12.7,-,N/A,,Clear,140,2013-05-21 20:55:00
1:55 PM,57.6,14.0,18,30.32,10.0,SE,10.4,-,N/A,,Clear,130,2013-05-21 21:55:00
2:55 PM,58.8,12.9,16,30.29,10.0,Variable,3.5,-,N/A,,Clear,0,2013-05-21 22:55:00
3:55 PM,60.1,13.1,16,30.26,10.0,Variable,4.6,-,N/A,,Clear,0,2013-05-21 23:55:00
4:55 PM,62.1,13.3,15,30.24,10.0,Variable,6.9,-,N/A,,Clear,0,2013-05-22 00:55:00
5:55 PM,62.8,11.5,13,30.29,10.0,SE,4.6,-,N/A,,Clear,140,2013-05-22 01:55:00
6:55 PM,63.1,14.4,15,30.19,10.0,Variable,4.6,-,N/A,,Clear,0,2013-05-22 02:55:00
7:55 PM,63.1,15.3,16,30.16,10.0,Variable,3.5,-,N/A,,Clear,0,2013-05-22 03:55:00
8:55 PM,62.1,16.9,17,30.15,10.0,Variable,5.8,-,N/A,,Clear,0,2013-05-22 04:55:00
9:55 PM,59.7,17.6,19,30.14,10.0,WSW,3.5,-,N/A,,Clear,240,2013-05-22 05:55:00
10:55 PM,50.0,22.8,34,30.14,10.0,Calm,Calm,-,0.00,,Clear,0,2013-05-22 06:55:00
11:55 PM,44.2,26.1,49,30.13,10.0,Calm,Calm,-,N/A,,Clear,0,2013-05-22 07:55:00